LiveATC.Net - Listen to live air traffic control over the Internet!


ICAO: EFKU  IATA: KUO   Airport: Kuopio Airport
City: Siilinjarvi
Country: Finland   Continent: Europe
EFKU METAR Weather: EFKU 211020Z AUTO 33006KT 9999 BKN005 M01/M02 Q1024
EFKU Flight Activity (FlightAware)
EFKU Tower/Approach
Feed Status: DOWN
Last heard on: 2017-09-19 20:42:02 (31 days 13 hours 52 minutes ago)
EFKU Tower/Approach Audio Archives
FacilityFrequency
Kuopio Approach130.600
Kuopio Tower120.150


NOTICE

Unauthorized use prohibited. See LiveATC.net Terms of Service


Find LiveATC Audio Streams


Airport/ARTCC Code

Frequency Search
(e.g., 124.400, 128.75)
Site-wide search
 


Browse LiveATC Feeds
LiveATC Coverage Map
Top 50 LiveATC Feeds
Bad Weather Areas

LiveATC FAQ
Offer a LiveATC Feed
Contact LiveATC.net
Press Inquiries

LiveATC on iPhone
LiveATC on Android

Windows Phone
Windows 8/10

LiveATC Mobile
(Mobile browser)

ATC Audio Archives
Interesting Recordings

LiveATC Forums


Home Page
About LiveATC.net
Make a Donation
LiveATC Store

Terms of Use
Privacy Policy

Canadian Air Freqs

AIRMETs/SIGMETs

FAA Airport Status
Nat'l Airspace Status
Arrival Demand Charts


Server Software By:
Icecast.org
Liquidsoap